This demonstration page uses our WeatherBlox Daily Observations layout. Learn more.

38.89511, -77.03637

Hourly Observations for October 19, 2018

Temp ( °F °C ) Dew Point ( °F °C ) Humidity (%) Winds ( mph kmh ) Pressure ( in mb ) Visibility ( mi km ) Precip ( " mm )
12:52 am 00:52 Clear 47 8.3 38 3.3 71 71 Calm 30.39 1029 10 16.0934 0 0
1:52 am 01:52 Clear 45 7.2 37 2.8 74 74 WSW 5 7 30.39 1029 10 16.0934 0 0
2:52 am 02:52 Clear 46 7.8 38 3.3 73 73 Calm 30.39 1029 10 16.0934 0 0
3:52 am 03:52 Clear 46 7.8 39 3.9 77 77 Calm 30.38 1029 10 16.0934 0 0
4:52 am 04:52 Clear 44 6.7 38 3.3 79 79 SW 5 7 30.38 1029 10 16.0934 0 0
5:52 am 05:52 Clear 44 6.7 37 2.8 76 76 WSW 3 6 30.38 1029 10 16.0934 0 0
6:52 am 06:52 Clear 45 7.2 39 3.9 80 80 WSW 3 6 30.38 1029 10 16.0934 0 0
7:52 am 07:52 Sunny 45 7.2 40 4.4 83 83 Calm 30.38 1029 10 16.0934 0 0
8:52 am 08:52 Sunny 49 9.4 43 6.1 80 80 Calm 30.38 1029 10 16.0934 0 0
9:52 am 09:52 Sunny 52 11.1 44 6.7 75 75 S 8 13 30.37 1028 10 16.0934 0 0
10:52 am 10:52 Mostly Sunny 56 13.3 44 6.7 65 65 SSE 12 19 30.35 1028 10 16.0934 0 0
11:52 am 11:52 Partly Cloudy 60 15.6 43 6.1 53 53 S 10 17 30.32 1027 10 16.0934 0 0
12:52 pm 12:52 Partly Cloudy 62 16.7 43 6.1 50 50 S 14 22 30.26 1025 10 16.0934 0 0
1:52 pm 13:52 Partly Cloudy 64 17.8 42 5.6 45 45 S 13 20 30.23 1024 10 16.0934 0 0
2:52 pm 14:52 Partly Cloudy 65 18.3 42 5.6 43 43 SSW 15 24 30.17 1022 10 16.0934 0 0
3:52 pm 15:52 Mostly Cloudy 65 18.3 43 6.1 45 45 S 15 24 30.14 1021 10 16.0934 0 0
4:52 pm 16:52 Mostly Cloudy 65 18.3 42 5.6 43 43 S 13 20 30.11 1020 10 16.0934 0 0
5:52 pm 17:52 Mostly Cloudy 63 17.2 45 7.2 52 52 S 12 19 30.08 1019 10 16.0934 0 0
6:52 pm 18:52 Mostly Cloudy 61 16.1 48 8.9 63 63 S 9 15 30.07 1018 10 16.0934 0 0
7:52 pm 19:52 Mostly Cloudy 60 15.6 46 7.8 60 60 S 12 19 30.06 1018 10 16.0934 0 0
8:52 pm 20:52 Mostly Cloudy 60 15.6 45 7.2 58 58 S 14 22 30.04 1017 10 16.0934 0 0
9:52 pm 21:52 Mostly Cloudy 60 15.6 45 7.2 58 58 S 15 24 30.01 1016 10 16.0934 0 0
10:52 pm 22:52 Cloudy 60 15.6 45 7.2 58 58 S 14 22 29.97 1015 10 16.0934 0 0
11:52 pm 23:52 Cloudy with Light Rain 59 15 48 8.9 67 67 SSW 14 22 29.94 1014 10 16.0934 0 0.0254

Powered by AerisWeather